Hourly Data Report for September 18, 2017

All times are specified in Local Standard Time (LST). Add 1 hour to adjust for Daylight Saving Time where and when it is observed.

SATURNA ISLAND CS
BRITISH COLUMBIA

48°47'02.067" N
123°02'41.082" W
24.40 m
1017101
71473
WEZ

Download Data

Hourly Data (September 2017)
Hourly Data Report for September 18, 2017
Temp Definition
°C
Dew Point Temp Definition
°C
Rel Hum Definition
%
Wind Dir Definition
10's deg

Wind Spd Definition
km/h
Visibility Definition
km
Stn Press Definition
kPa
Hmdx Definition


Wind Chill Definition


Weather Definition


TIME
00:00 10.7 8.4 86 19 25   100.51     LegendNANA
01:00 11.3 8.9 85 20 17   100.52     LegendNANA
02:00 10.5 8.5 88 20 20   100.48     LegendNANA
03:00 10.9 9.2 89 22 16   100.45     LegendNANA
04:00 10.8 9.2 90 20 16   100.41     LegendNANA
05:00 10.9 9.3 90 20 28   100.37     LegendNANA
06:00 10.8 9.3 91 19 31   100.40     LegendNANA
07:00 10.3 9.0 92 19 25   100.39     LegendNANA
08:00 11.3 10.0 92 20 11   100.41     LegendNANA
09:00 13.1 10.9 86 18 18   100.41     LegendNANA
10:00 14.1 10.4 79 17 19   100.42     LegendNANA
11:00 14.5 10.3 76 14 19   100.42     LegendNANA
12:00 14.2 9.3 72 13 18   100.40     LegendNANA
13:00 14.1 9.8 75 12 18   100.37     LegendNANA
14:00 14.3 9.0 70 12 18   100.33     LegendNANA
15:00 13.5 9.1 75 12 15   100.30     LegendNANA
16:00 13.0 9.1 77 12 15   100.26     LegendNANA
17:00 13.6 7.9 68 16 5   100.23     LegendNANA
18:00 12.5 9.1 80 11 28   100.19     LegendNANA
19:00 12.2 9.0 81 11 23   100.17     LegendNANA
20:00 12.2 8.8 80 14 22   100.17     LegendNANA
21:00 11.9 9.0 82 14 20   100.14     LegendNANA
22:00 12.0 9.2 83 15 23   100.12     LegendNANA
23:00 11.7 9.1 84 15 23   100.12     LegendNANA

Notes on Data Quality.

Legend

  • E = Estimated
  • M = Missing
  • NA = Not Available
  • ‡ = Partner data that is not subject to review by the National Climate Archives
Date modified: